Milton, FL

12:10 PM CST on February 11, 2016 (GMT -0600)
Whiting Field Naval Air Station (South)

Weather History for KNDZ - January, 2013

Change the Weather History Date:

Thursday, January 17, 2013

  Actual Average (KNSE) Record (KNSE)
Temperature  
Mean Temperature 41 °F -  
Max Temperature 45 °F 59 °F 75 °F (2012)
Min Temperature 37 °F 40 °F 21 °F (1997)
Degree Days  
Heating Degree Days 24    
Moisture  
Dew Point 36 °F    
Average Humidity 81    
Maximum Humidity 96    
Minimum Humidity 61    
Precipitation  
Precipitation 0.02 in - - ()
Sea Level Pressure  
Sea Level Pressure 30.10 in    
Wind  
Wind Speed 9 mph (WNW)    
Max Wind Speed 18 mph    
Max Gust Speed 29 mph    
Visibility 10 miles    
Events      
Averages and records for this station are not official NWS values.
T = Trace of Precipitation, MM = Missing Value Source: NWS Daily Summary

Daily Weather History Graph

Daily Weather History Graph

Search for Another Location

Airport or City:

Trip Planner

Search our weather history database for the weather conditions in past years. The results will help you decide how hot, cold, wet, or windy it might be!

Date:

Astronomy

Jan. 17, 2013 Rise Set
Actual Time 6:45 AM CST 5:11 PM CST
Civil Twilight 6:19 AM CST 5:37 PM CST
Nautical Twilight 5:50 AM CST 6:06 PM CST
Astronomical Twilight 5:21 AM CST 6:35 PM CST
Moon 10:22 AM CST (1/17) 11:29 PM CST (1/17)
Length of Visible Light 11h 17m
Length of Day
10h 25m
Waxing Crescent, 38% of the Moon is Illuminated
Jan 17
Waxing Crescent
Jan 18
First Quarter
Jan 26
Full
Feb 3
Last Quarter
Feb 10
New

Hourly Weather History & Observations

Time (CST) Temp. Windchill Dew Point Humidity Pressure Visibility Wind Dir Wind Speed Gust Speed Precip Events Conditions
12:56 AM 45.0 °F 40.6 °F 43.0 °F 93% 29.98 in 10.0 mi NW 8.1 mph - N/A   Overcast
1:56 AM 44.1 °F 42.5 °F 43.0 °F 96% 29.98 in 9.0 mi Variable 3.5 mph - N/A   Overcast
2:34 AM 44.6 °F 42.2 °F 42.8 °F 93% 30.01 in 10.0 mi West 4.6 mph - N/A   Overcast
2:56 AM 44.1 °F 40.8 °F 42.1 °F 93% 29.98 in 10.0 mi West 5.8 mph - N/A   Overcast
3:51 AM 42.8 °F 40.1 °F 41.0 °F 93% 30.02 in 10.0 mi Variable 4.6 mph - 0.01 in   Overcast
3:56 AM 43.0 °F 39.5 °F 41.0 °F 93% 29.99 in 10.0 mi WSW 5.8 mph - 0.01 in   Overcast
4:04 AM 42.8 °F 38.0 °F 41.0 °F 93% 30.02 in 10.0 mi WSW 8.1 mph - N/A   Overcast
4:38 AM 42.8 °F 37.5 °F 39.2 °F 87% 30.04 in 7.0 mi West 9.2 mph - N/A   Overcast
4:56 AM 41.0 °F 36.4 °F 39.0 °F 93% 30.02 in 9.0 mi Variable 6.9 mph 17.3 mph N/A   Overcast
4:59 AM 41.0 °F 37.1 °F 39.2 °F 93% 30.05 in 10.0 mi Variable 5.8 mph 17.3 mph N/A   Overcast
5:13 AM 41.0 °F 35.8 °F 39.2 °F 93% 30.06 in 8.0 mi WNW 8.1 mph - N/A   Overcast
5:48 AM 39.2 °F 35.9 °F 37.4 °F 93% 30.06 in 10.0 mi Variable 4.6 mph - 0.00 in   Overcast
5:56 AM 39.9 °F 35.1 °F 37.0 °F 89% 30.02 in 10.0 mi West 6.9 mph - 0.00 in   Overcast
6:12 AM 39.2 °F 34.2 °F 37.4 °F 93% 30.06 in 10.0 mi Variable 6.9 mph - N/A   Overcast
6:28 AM 39.2 °F 32.5 °F 35.6 °F 87% 30.07 in 10.0 mi West 10.4 mph 18.4 mph N/A   Overcast
6:44 AM 39.2 °F 33.6 °F 35.6 °F 87% 30.07 in 10.0 mi West 8.1 mph - N/A   Overcast
6:51 AM 39.2 °F 35.0 °F 35.6 °F 87% 30.07 in 10.0 mi WSW 5.8 mph - N/A   Overcast
6:56 AM 37.9 °F 32.7 °F 36.0 °F 93% 30.04 in 9.0 mi Variable 6.9 mph - N/A   Overcast
7:06 AM 37.4 °F 31.4 °F 35.6 °F 93% 30.08 in 10.0 mi West 8.1 mph - N/A   Overcast
7:56 AM 37.9 °F 31.5 °F 35.1 °F 89% 30.07 in 6.0 mi West 9.2 mph 18.4 mph N/A   Overcast
8:27 AM 37.4 °F 30.3 °F 35.6 °F 93% 30.11 in 10.0 mi West 10.4 mph 18.4 mph 0.01 in   Overcast
8:56 AM 39.0 °F 34.0 °F 34.0 °F 82% 30.10 in 10.0 mi WNW 6.9 mph 16.1 mph 0.01 in   Overcast
9:04 AM 39.2 °F 34.2 °F 35.6 °F 87% 30.13 in 10.0 mi Variable 6.9 mph - N/A   Overcast
9:47 AM 39.2 °F 32.0 °F 32.0 °F 75% 30.14 in 10.0 mi WNW 11.5 mph 24.2 mph N/A   Overcast
9:56 AM 37.9 °F 29.6 °F 32.0 °F 79% 30.11 in 10.0 mi NW 13.8 mph 25.3 mph N/A   Overcast
10:56 AM 39.0 °F 30.6 °F 30.9 °F 73% 30.11 in 10.0 mi NW 15.0 mph 25.3 mph N/A   Overcast
11:56 AM 39.9 °F 32.5 °F 30.9 °F 70% 30.10 in 10.0 mi WNW 12.7 mph 26.5 mph N/A   Overcast
12:56 PM 43.0 °F 35.4 °F 32.0 °F 65% 30.10 in 10.0 mi NW 16.1 mph 27.6 mph N/A   Overcast
1:45 PM 44.6 °F 36.9 °F 32.0 °F 61% 30.13 in 10.0 mi NW 18.4 mph 27.6 mph N/A   Overcast
1:56 PM 44.1 °F 36.5 °F 32.0 °F 63% 30.11 in 10.0 mi NW 17.3 mph 26.5 mph N/A   Overcast
2:47 PM 44.6 °F 38.8 °F 33.8 °F 66% 30.14 in 10.0 mi NW 11.5 mph 24.2 mph N/A   Overcast
2:56 PM 44.1 °F 37.4 °F 33.1 °F 65% 30.11 in 10.0 mi NW 13.8 mph 25.3 mph N/A   Overcast
3:56 PM 45.0 °F 38.9 °F 34.0 °F 65% 30.14 in 10.0 mi NW 12.7 mph 24.2 mph N/A   Overcast
4:17 PM 44.6 °F 38.1 °F 35.6 °F 71% 30.19 in 10.0 mi NW 13.8 mph 24.2 mph N/A   Overcast
4:56 PM 45.0 °F 39.7 °F 34.0 °F 65% 30.17 in 10.0 mi NW 10.4 mph 28.8 mph N/A   Partly Cloudy
5:56 PM 43.0 °F 37.7 °F 34.0 °F 71% 30.21 in 10.0 mi NW 9.2 mph - N/A   Clear
6:56 PM 43.0 °F 36.0 °F 32.0 °F 65% 30.25 in 10.0 mi NNW 13.8 mph 26.5 mph N/A   Clear
7:56 PM 42.1 °F 34.9 °F 32.0 °F 67% 30.26 in 10.0 mi NNW 13.8 mph 20.7 mph N/A   Clear
8:56 PM 41.0 °F 34.7 °F 33.1 °F 73% 30.27 in 10.0 mi NW 10.4 mph - N/A   Clear
9:56 PM 41.0 °F 33.5 °F 33.1 °F 73% 30.27 in 10.0 mi NNW 13.8 mph 19.6 mph N/A   Clear
10:56 PM 42.1 °F 34.2 °F 33.1 °F 70% 30.25 in 10.0 mi North 16.1 mph 23.0 mph N/A   Clear
11:56 PM 43.0 °F 35.7 °F 33.1 °F 68% 30.26 in 10.0 mi North 15.0 mph - N/A   Clear